Printer-friendly version

IAU Minor Planet Center

Minor Planet Center

MPEC 2008-M32 : COMET C/2008 L3 (HILL)

The following Minor Planet Electronic Circular may be linked-to from your own Web pages, but must not otherwise be redistributed electronically.


Read MPEC 2008-M31 Read MPEC 2008-M33


M.P.E.C. 2008-M32                                Issued 2008 June 25, 16:24 UT

     The Minor Planet Electronic Circulars contain information on unusual
         minor planets and routine data on comets.  They are published
   on behalf of Commission 20 of the International Astronomical Union by the
          Minor Planet Center, Smithsonian Astrophysical Observatory,
                          Cambridge, MA 02138, U.S.A.

             Prepared using the Tamkin Foundation Computer Network

                              MPC@CFA.HARVARD.EDU
          URL http://www.cfa.harvard.edu/iau/mpc.html  ISSN 1523-6714

                            COMET C/2008 L3 (HILL)

Observations:
    CK08L030  C2008 06 15.10283 13 44 29.59 +56 54 12.4          18.7 T EM032H55
    CK08L030  C2008 06 15.10650 13 44 29.04 +56 53 59.9          19.5 T EM032H55
    CK08L030  C2008 06 15.11025 13 44 28.24 +56 53 49.0          19.4 T EM032H55
    CK08L030  C2008 06 15.17847 13 44 16.25 +56 50 26.3          19.2 T EM032673
    CK08L030  C2008 06 15.18843 13 44 14.42 +56 49 56.1                 EM032673
    CK08L030  C2008 06 15.19595 13 44 13.02 +56 49 34.1                 EM032673
    CK08L030  C2008 06 15.20637 13 44 11.17 +56 49 02.6                 EM032673
    CK08L030  C2008 06 15.21609 13 44 09.39 +56 48 33.4                 EM032673
    CK08L030  C2008 06 15.22363 13 44 08.35 +56 48 10.7          18.6 T EM032703
    CK08L030  C2008 06 15.22664 13 44 07.49 +56 48 02.1                 EM032703
    CK08L030  C2008 06 15.22964 13 44 07.61 +56 47 54.1          18.4 T EM032703
    CK08L030  C2008 06 15.23264 13 44 06.49 +56 47 44.0          17.8 T EM032703
    CK08L030  C2008 06 15.93913 13 42 05.92 +56 12 32.1          15.9 N EM032J24
    CK08L030  C2008 06 18.88608 13 34 41.49 +53 46 01.6          19.6 N EM032213
    CK08L030  C2008 06 18.90223 13 34 39.22 +53 45 13.4          19.7 N EM032213
    CK08L030  C2008 06 18.91939 13 34 36.83 +53 44 21.0          19.6 N EM032213
    CK08L030  C2008 06 22.86143 13 26 47.44 +50 30 12.0          18.7 N EM032B37
    CK08L030  C2008 06 22.86217 13 26 47.39 +50 30 09.0          18.4 N EM032B37
    CK08L030  C2008 06 22.86803 13 26 46.97 +50 29 50.7          19.0 N EM032B37
    CK08L030  C2008 06 22.87166 13 26 46.71 +50 29 40.0          19.2 N EM032B37
    CK08L030  C2008 06 22.87885 13 26 45.45 +50 29 22.0          19.1 N EM032B37
    CK08L030  C2008 06 22.88206 13 26 45.06 +50 29 09.6          19.0 N EM032B37
    CK08L030  C2008 06 22.88658 13 26 44.70 +50 28 58.0          18.7 N EM032B37
    CK08L030  C2008 06 22.88767 13 26 44.66 +50 28 54.0          18.9 N EM032B37
    CK08L030  C2008 06 22.89263 13 26 44.29 +50 28 38.3          18.8 N EM032B37
    CK08L030  C2008 06 22.89537 13 26 43.76 +50 28 30.0          18.8 N EM032B37
    CK08L030  C2008 06 22.90186 13 26 43.50 +50 28 12.3          18.8 N EM032B37
    CK08L030  C2008 06 24.92949 13 23 28.09 +48 49 53.9          20.0 N EM032J47
    CK08L030  C2008 06 24.93355 13 23 27.69 +48 49 42.7          19.7 N EM032J47
    CK08L030  C2008 06 24.93525 13 23 27.57 +48 49 37.5          20.0 N EM032J47
    CK08L030  C2008 06 24.93897 13 23 27.25 +48 49 27.3          19.9 N EM032J47

Observer details:
213 Observatorio Montcabre.  Observer R. Naves.  Measurer M. Campas.  0.30-m
    f/5 Schmidt-Cassegrain.
673 Table Mountain Observatory, Wrightwood.  Observer J. Young.  0.61-m f/16
    Cassegrain + CCD.
703 Catalina Sky Survey.  Observer A. Boattini.  Measurers E. C. Beshore,
    A. Boattini, A. R. Gibbs, A. D. Grauer, R. E. Hill, R. A. Kowalski,
    S. M. Larson.  0.68-m Schmidt + CCD.
B37 Obs. de L' Ametlla del Valles, Barcelona.  Observer A. Garrigos S.
    0.51-m f/4 Newtonian reflector + CCD.
H55 Astronomical Research Observatory, Charleston.  Observer R. Holmes.
    0.61-m f/4.0 astrograph + CCD.
J24 Observatorio Altamira.  Observer J. F. Hernandez.  0.4-m f/10
    Schmidt-Cassegrain + CCD.
J47 Observatorio Nazaret.  Observer G. Muler.  0.30-m Schmidt-Cassegrain + CCD.

Orbital elements:
    C/2008 L3 (Hill)
T 2008 Apr. 22.262 TT                                   MPC
q   2.01103              (2000.0)            P               Q
                   Peri.  101.694       -0.113915       -0.908387
                   Node    24.130       -0.604908       -0.257815
e   1.0            Incl.  100.225       +0.788105       -0.329187
From 43 observations 2008 June 13-24.

Ephemeris:
    C/2008 L3 (Hill)
Date    TT    R. A. (2000) Decl.     Delta      r     Elong.  Phase   m1    m2
2008 06 23    13 26.56   +50 23.4    2.003    2.144    83.7    28.1  17.3
2008 07 03    13 14.35   +42 34.0    2.141    2.189    79.1    27.1  17.6
2008 07 13    13 08.93   +35 30.4    2.306    2.238    73.4    25.8  17.8
2008 07 23    13 07.52   +29 16.8    2.488    2.292    67.1    24.1  18.1
2008 08 02    13 08.64   +23 49.8    2.681    2.350    60.3    22.0  18.4
2008 08 12    13 11.46   +19 03.0    2.875    2.412    53.4    19.7  18.6
2008 08 22    13 15.43   +14 50.2    3.066    2.478    46.3    17.2  18.9

Brian G. Marsden             (C) Copyright 2008 MPC           M.P.E.C. 2008-M32

Read MPEC 2008-M31 Read MPEC 2008-M33


Our Web policy. Index to the CBAT/MPC/ICQ pages.


Valid HTML 4.01!